Погода в Чёрныше

Россия / Республика Коми     60°13′01″N   49°36′25″E
темп.,
°C
ветер,
м/с
пор.,
м/с
влажн.,
%
обл.,
%
осадки,
мм/ч
давл.,
гПа
погр.,
м
5 марта, пт
пт500:00−13сз4109497 0.1 993382
03:00−17зсз389691 0.1 995229
06:00−20з239976 0.0 99785
09:00−16зсз249345 0.0 998259
12:00−12зсз358796 0.0 999722
15:00−12зсз368798 0.1 1001851
18:00−15зсз3895100 0.1 1003430
21:00−19зсз259881 0.1 100587
6 марта, сб
сб600:00−20зсз249977 0.0 100686
03:00−21з239980 0.0 100850
06:00−20з269897 0.1 1008201
09:00−17з369494 0.1 1009345
12:00−14з3586100 0.1 1009791
15:00−13з3586100 0.1 1009986
18:00−16з2297100 0.1 100961
21:00−19з229998 0.1 101020
7 марта, вс
вс700:00−21юз229963 0.0 100920
03:00−22ююз2210073 0.0 100921
06:00−22ю2310099 0.0 100856
09:00−17ю2495100 0.1 1007251
12:00−12ю259098 0.0 1005484
15:00−10ююв368999 0.1 1003642
18:00−12юв3993100 0.1 1003446
21:00−14юв3994100 0.1 1002381
8 марта, пн
пн800:00−15вюв3895100 0.0 1001327
03:00−15в3895100 0.1 1000323
06:00−15в4995100 0.4 998397
09:00−14в4994100 0.9 998454
12:00−11в4792100 0.3 998575
15:00−11всв4793100 0.8 999646
18:00−12св4994100 0.4 1000490
21:00−14св3894100 0.6 1001423
9 марта, вт
вт900:00−14св3895100 0.1 1001398
03:00−16ссв4995100 0.2 1003379
06:00−18ссв3896100 0.1 1004351
09:00−18с3794100 0.1 1006348
12:00−16с3592100 0.0 1008428
15:00−15с3590100 0.1 1011551
18:00−18с2696100 0.0 1012263
21:00−22ссв2697100 0.0 1014173